Regional Weather Roundup
Issued by NWS

Home | Current Version | Previous Version | Graphics & Text | Print | Product List | Glossary On
Versions: 1 2 3 4 5 6 7 8 9 10 11 12 13 14 15 16 17 18 19 20 21 22 23 24 25 26 27 28 29 30 31 32 33 34 35 36 37 38 39 40 41 42 43 44 45 46 47 48 49 50
711
ASUS45 KBOU 280807
RWRCO

WEATHER ROUNDUP FOR COLORADO
NATIONAL WEATHER SERVICE DENVER/BOULDER CO
200 AM MDT THU APR 28 2016

NOTE: "FAIR" INDICATES FEW OR NO CLOUDS BELOW 12000 FEET WITH NO
SIGNIFICANT WEATHER AND/OR OBSTRUCTIONS TO VISIBILITY.

COZ001>005-013-030-031-280900-
...NORTHWEST COLORADO...

CITY           SKY/WX    TMP DP  RH WIND       PRES   REMARKS
CRAIG          MOCLDY    37  32  82 NE6       29.81F
HAYDEN         FAIR      37  30  75 E12       29.80F
MEEKER         MOCLDY    33  30  88 NE3       29.79F
MOUNT WERNER   NOT AVBL
STEAMBOAT SPGS CLOUDY    33  30  89 CALM      29.82F
WALDEN         CLOUDY    28  27  93 NW7       29.88S WCI  21
$$

COZ006>008-011-280900-
...WEST CENTRAL VALLEYS...

CITY           SKY/WX    TMP DP  RH WIND       PRES   REMARKS
GRAND JUNCTION CLOUDY    47  41  80 NE9       29.71F
MONTROSE       MOCLDY    44  37  76 S5        29.77F
EAGLE          FAIR      34  30  86 E3        29.84F
RIFLE          FAIR      40  35  83 CALM      29.76F
DELTA          NOT AVBL
NUCLA          NOT AVBL
$$

COZ017>023-064>068-280900-
...SOUTHWEST COLORADO...

CITY           SKY/WX    TMP DP  RH WIND       PRES   REMARKS
DURANGO        CLOUDY    44  32  62 N6        29.79F
CORTEZ         LGT RAIN  48  37  65 SE9       29.76F
PAGOSA SPRINGS CLOUDY    41  28  59 CALM      29.84F
TELLURIDE      CLOUDY    37  29  73 CALM      29.82F
WOLF CREEK PAS NOT AVBL
$$

COZ009-010-012-014-032>034-037-058>063-280900-
...CENTRAL COLORADO...

CITY           SKY/WX    TMP DP  RH WIND       PRES   REMARKS
ASPEN          FAIR      32  26  78 CALM      29.80F
BUENA VISTA    LGT RAIN  38  33  84 E7        29.87F
COPPER MTN     NOT AVBL
BERTHOUD PASS  CLOUDY    18   9  68 SE10G16   29.92F WCI   6
COTTONWOOD PAS LGT SNOW  34  32  93 SE6       29.90F WCI  29
GUNNISON       FAIR      37  28  70 N7        29.86F
KREMMLING      CLOUDY    32  28  86 CALM      29.86S
LEADVILLE      CLOUDY    27  24  89 CALM      29.87F
MONARCH PASS   LGT SNOW  25  23  93 S8        30.04F WCI  16
SALIDA         CLOUDY    39  36  88 SE10G17   29.95S
SUNLIGHT       LGT SNOW  30  28  93 CALM      29.91F
WILKERSON PASS LGT SNOW  27  25  93 S6        29.95F VSB 1   WCI  20
$$

COZ069>075-280900-
...SAN LUIS VALLEY/SANGRE DE CRISTO MOUNTAINS...

CITY           SKY/WX    TMP DP  RH WIND       PRES   REMARKS
ALAMOSA        CLOUDY    41  33  73 E13       29.85F
LA VETA PASS   LGT SNOW  28  27  93 MISG      29.95F VSB 3/4
SAGUACHE       MOCLDY    37  32  81 NE5       29.87F
$$

COZ035-036-038>040-280900-
...NORTHERN COLORADO FRONT RANGE...

CITY           SKY/WX    TMP DP  RH WIND       PRES   REMARKS
DENVER INTL AP CLOUDY    37  26  64 E7        29.93S
DMNS CITY PARK   N/A     38  26  62 E3        29.93S
AURORA         CLOUDY    36  28  74 E6        29.93F
FRONT RANGE AP NOT AVBL
ERIE MUNI ARPT CLOUDY    39  28  63 E5        29.94S
BOULDER MUN AP CLOUDY    37  28  70 CALM      29.93F
CENTENNIAL     FLURRIES  36  28  73 E7        29.92F
BROOMFIELD     CLOUDY    37  28  70 NE3       29.93F
FORT COLLINS   CLOUDY    37  27  65 E7        29.94F
LONGMONT       CLOUDY    40  29  63 E5        29.96S
$$

COZ041-046-047-076>085-087-088-280900-
...PIKES PEAK/PALMER DIVIDE AND SOUTHERN FOOTHILLS...

CITY           SKY/WX    TMP DP  RH WIND       PRES   REMARKS
COLO. SPRINGS  MOCLDY    39  28  64 NE10      29.90F
A. F. ACADEMY  CLOUDY    36  34  93 NW8       29.89F
SCHRIEVER AFB  NOT AVBL
ELLICOTT       NOT AVBL
FALCON         CLOUDY    33  27  78 NE10      29.92S WCI  25
FORT CARSON    CLOUDY    40  35  80 NE6       29.89S
LIMON          CLOUDY    35  27  72 N13       29.91F WCI  26
MONUMENT HILL  FLURRIES  30  28  93 E5        29.93S WCI  25
TRINIDAD       CLOUDY    42  31  64 SW7       29.88R
$$

COZ042>045-048>051-090-091-280900-
...NORTHEAST COLORADO...

CITY           SKY/WX    TMP DP  RH WIND       PRES   REMARKS
GREELEY ARPT   CLOUDY    37  28  70 NE8       29.95S
AKRON          FAIR      29  25  85 NW7       29.92R WCI  22
BURLINGTON     FAIR      35  30  82 NW6       29.92R WCI  30
WRAY           NOT AVBL
STERLING       CLOUDY    36  32  87 E3        29.93R
HOLYOKE        NOT AVBL
FORT MORGAN    FAIR      30  26  86 NW7       29.94S WCI  23
$$

COZ086-089-092>099-280900-
...SOUTHEAST COLORADO...

CITY           SKY/WX    TMP DP  RH WIND       PRES   REMARKS
PUEBLO         CLOUDY    48  27  44 E15       29.90R
LA JUNTA       CLOUDY    46  28  49 NE12      29.91R
LAMAR          CLOUDY    44  32  62 E7        29.89S
SPRINGFIELD      N/A     42  32  67 NE8       29.89S
$$




USA.gov is the U.S. government's official web portal to all federal, state and local government web resources and services.